CZ-6A DEB, 57579

Orbit data source: Space-Track

CZ-6A DEB, 57579 is space debris in SSO originally from a launch on Fri, 11 Nov 2022 UTC launched from the Taiyaun Space Center, China (TSC). Debris objects in space refer to the collection of defunct objects orbiting the Earth. Examples of debris include non-operational satellites, rocket bodies, and fragments generated from explosions, collisions, or faulty payload assembly.

Loading next visibility...
Identifier
57579, 2022-151AHW
Orbit
SSO
Country
Flag of CNCN / PRC
Related business
Manufacturer
SAST
Mission
Spacecraft
Bus & Motor
Unknown
Mass
Unknown
Launch date (UTC)
2022-11-11 (3 years ago)
Launch vehicle
Unknown
Launch site
Taiyaun Space Center, China (TSC)
Object type
Payload
Rocket body
Debris
Shape & HBR
Unknown shape, 0.1 m
Radar Cross Section
Small (<0.1 m²)

Expand to show TLE details & history
Last TLE update: 1 week ago

TLE from 1 week ago
0 CZ-6A DEB
1 57579U 22151AHW 25344.30209198  .00002769  00000-0  12150-2 0  9999
2 57579  98.7625 356.8105 0024634 156.1965 204.0358 14.24274269136577
Epoch: 2025-12-10T07:15Z
TLE epoch observation values (Epoch: 2025-12-10T07:15:00.747Z)
Latitude
-0.00006°
Longitude
168.78302°
Altitude
830.037 km
Speed
7.43 km/s
True Right ascension
23h 47m 14s
True Declination
0° 00' 00"
Sunlit
Object was in daylight at epoch
Visualization orbit readout
Latitude
Unknown
Longitude
Unknown
Altitude
Unknown
Speed
Unknown
Apparent Right ascension
Unknown
Apparent Declination
Unknown
Sunlit
N/A
Visualization observer readout
Local Sidereal Time
06:44:57
Azimuth
Unknown
Elevation
Unknown
Doppler factor
Unknown
Orbital elements
Apogee altitude
825.792 km
Perigee altitude
790.387 km
Semi-major axis
7,186.226 km
Eccentricity
0.00246
Inclination
98.7625°
RAAN
356.8105°
Arg. of periapsis
156.1965°
True anomaly
203.92115°
Mean anomaly
204.0358°
Eccentric anomaly
203.97844°
Mean motion
3.5628 °/min
Orbital period
101.04 mins
BSTAR
0.001215
Loading maneuver chart data...
Computing Atmospheric mass density...
Loading historical data...
Loading historical data...
Loading historical data...
Loading historical data...
Loading historical data...
Loading historical data...
Loading historical data...

Documentation

Showing up to 5 results
|